OBJECT AL, 57200

Orbit data source: Space-Track

You're viewing an uncataloged RSO

Recently launched and/or uncataloged RSOs may have evolving metadata. Metadata may include the following, but is not limited to: Owner, Manufacturer, Bus, Motor, and Mission.

OBJECT AL, 57200 is a satellite in SSO that was launched on Tue, 27 Jun 2023 UTC via a SOYUZ-2-1B launch vehicle from the Vostochny Cosmodrome (VOSTO). Unknown objects in Earth's orbit typically refer to objects detected orbiting the Earth but have not yet been identified or cataloged. These objects could be anything from previously untracked satellites, spent rocket stages, debris from satellite collisions, or even natural meteoroids temporarily captured by Earth's gravity.

Loading next visibility...
Identifier
57200, 2023-091AL
Orbit
SSO
Country
Flag of TBDTBD
Related business
None
Manufacturer
Unknown
Mission
Operational Civil Technology
Bus & Motor
Unknown
Mass
Unknown
Launch date (UTC)
2023-06-27 (3 years ago)
Launch vehicle
SOYUZ-2-1B
Launch site
Vostochny Cosmodrome (VOSTO)
Object type
Unknown
Shape & HBR
Box, 0.2 m
Radar Cross Section
0.080 m², Medium (>0.1 m² and < 1m²)

Expand to show TLE details & history
Last TLE update: 4 hours ago

TLE from 4 hours ago
0 OBJECT AL
1 57200U 23091AL  26257.17568034  .00030702  00000-0  53272-3 0  9999
2 57200  97.4970 334.8776 0005414  95.2048 264.9822 15.50799984178772
Epoch: 2026-09-14T04:12Z
TLE epoch observation values (Epoch: 2026-09-14T04:12:58.781Z)
Latitude
0.00004°
Longitude
-81.52707°
Altitude
417.842 km
Speed
7.66 km/s
True Right ascension
22h 19m 30s
True Declination
0° 00' 00"
Sunlit
Object was in full shadow at epoch
Visualization orbit readout
Latitude
Unknown
Longitude
Unknown
Altitude
Unknown
Speed
Unknown
Apparent Right ascension
Unknown
Apparent Declination
Unknown
Sunlit
N/A
Visualization observer readout
Local Sidereal Time
00:23:33
Azimuth
Unknown
Elevation
Unknown
Doppler factor
Unknown
Orbital elements
Apogee altitude
414.994 km
Perigee altitude
407.642 km
Semi-major axis
6,789.455 km
Eccentricity
0.00054
Inclination
97.497°
RAAN
334.8776°
Arg. of periapsis
95.2048°
True anomaly
264.9204°
Mean anomaly
264.9822°
Eccentric anomaly
264.9513°
Mean motion
3.87963 °/min
Orbital period
92.79 mins
BSTAR
0.00053272
Loading maneuver chart data...
Computing Atmospheric mass density...
Loading historical data...
Loading historical data...
Loading historical data...
Loading historical data...
Loading historical data...
Loading historical data...
Loading historical data...

Documentation

Showing up to 5 results
|